Location: Harwich
(41.7160°N, 69.9939°W)
Time: 08:54:32
(UTC+02:00)

A-11 Canister half - Pass Details

Date: 25 February 2024
Orbit: 1513 x 1686 km, 47.2° (Epoch: 24 April)

Event Time Altitude Azimuth Distance (km) Brightness Sun altitude
Exits shadow 09:34:39 55° 295° (WNW) 1,946 9.1 -31.7°
Maximum altitude 09:36:56 68° 349° (N) 1,764 9.2 -31.3°
Drops below altitude 10° 09:46:47 10° 72° (ENE) 3,841 12.0 -29.5°
Sets 09:49:54 0° 76° (ENE) 4,803 12.8 -28.9°
